^^
Saratoga-Weather Station Historical Data
Daily Summary for August 12, 2020 Units:  Metric    English   Both
Daily Weekly Monthly Yearly Custom
  High: Low: Average:
Temperature: 35.9 °C 20.7 °C 26.6 °C
Dew Point: 21.2 °C 15.8 °C 18.2 °C
Humidity: 91% 35% 63%
Wind Speed: 22.7km/h 0km/h 2km/h
Wind Gust: 24.1km/h - -
Wind- - SE
Pressure: 1012.9 hPa 1009.8 hPa -
Precipitation: 2.3 mm    
Historical Graphs
 
 
Tabular Data for August 12, 2020
Time Temperature Dew Point Pressure Wind Wind Speed Wind Gust Humidity Rainfall Rate (Hourly) solar
00:03 26 °C 17.9 °C 1012.9 hPa East 1.4 km/h 3.2 km/h 61% 0.0 mm 0 W/m2
00:08 25.7 °C 17.9 °C 1012.9 hPa Calm   3.2 km/h 62% 0.0 mm 0 W/m2
00:13 25.5 °C 17.7 °C 1012.9 hPa Calm   1.6 km/h 62% 0.0 mm 0 W/m2
00:18 25.2 °C 17.7 °C 1012.9 hPa Calm   3.2 km/h 63% 0.0 mm 0 W/m2
00:23 25 °C 17.7 °C 1012.9 hPa Calm     64% 0.0 mm 0 W/m2
00:28 24.8 °C 17.5 °C 1012.9 hPa Calm   3.2 km/h 64% 0.0 mm 0 W/m2
00:33 24.6 °C 17.6 °C 1012.9 hPa Calm     65% 0.0 mm 0 W/m2
00:38 24.4 °C 17.4 °C 1012.9 hPa Calm     65% 0.0 mm 0 W/m2
00:43 24.3 °C 17.3 °C 1012.9 hPa Calm     65% 0.0 mm 0 W/m2
00:48 24.2 °C 17.2 °C 1012.9 hPa Calm     65% 0.0 mm 0 W/m2
00:53 24.1 °C 17.3 °C 1012.9 hPa Calm     66% 0.0 mm 0 W/m2
00:58 23.9 °C 17.2 °C 1012.9 hPa Calm     66% 0.0 mm 0 W/m2
01:03 23.8 °C 17.1 °C 1012.9 hPa Calm     66% 0.0 mm 0 W/m2
01:08 23.8 °C 17.1 °C 1012.9 hPa Calm     66% 0.0 mm 0 W/m2
01:13 23.7 °C 17.2 °C 1012.5 hPa Calm     67% 0.0 mm 0 W/m2
01:18 23.6 °C 17.1 °C 1012.5 hPa Calm     67% 0.0 mm 0 W/m2
01:23 23.5 °C 17.3 °C 1012.5 hPa Calm     68% 0.0 mm 0 W/m2
01:28 23.4 °C 17.2 °C 1012.5 hPa Calm     68% 0.0 mm 0 W/m2
01:33 23.3 °C 17.1 °C 1012.5 hPa Calm     68% 0.0 mm 0 W/m2
01:38 23.2 °C 17 °C 1012.5 hPa Calm     68% 0.0 mm 0 W/m2
01:43 23.1 °C 17.1 °C 1012.5 hPa Calm     69% 0.0 mm 0 W/m2
01:48 23 °C 17 °C 1012.5 hPa Calm     69% 0.0 mm 0 W/m2
01:53 22.9 °C 17.1 °C 1012.5 hPa Calm   1.6 km/h 70% 0.0 mm 0 W/m2
01:58 22.9 °C 17.1 °C 1012.5 hPa ESE 1.4 km/h 1.6 km/h 70% 0.0 mm 0 W/m2
02:03 22.8 °C 17 °C 1012.5 hPa Calm   1.6 km/h 70% 0.0 mm 0 W/m2
02:08 22.7 °C 16.9 °C 1012.5 hPa Calm     70% 0.0 mm 0 W/m2
02:13 22.7 °C 17.2 °C 1012.5 hPa ESE 1.4 km/h 1.6 km/h 71% 0.0 mm 0 W/m2
02:18 22.6 °C 17.1 °C 1012.5 hPa ESE 1.4 km/h 3.2 km/h 71% 0.0 mm 0 W/m2
02:23 22.5 °C 17 °C 1012.5 hPa Calm     71% 0.0 mm 0 W/m2
02:28 22.5 °C 17.2 °C 1012.5 hPa Calm   3.2 km/h 72% 0.0 mm 0 W/m2
02:33 22.4 °C 17.1 °C 1012.5 hPa Calm     72% 0.0 mm 0 W/m2
02:38 22.5 °C 17.2 °C 1012.9 hPa Calm     72% 0.0 mm 0 W/m2
02:43 22.5 °C 17 °C 1012.5 hPa Calm     71% 0.0 mm 0 W/m2
02:48 22.4 °C 17.1 °C 1012.9 hPa Calm     72% 0.0 mm 0 W/m2
02:53 22.4 °C 17.1 °C 1012.9 hPa Calm     72% 0.0 mm 0 W/m2
02:58 22.3 °C 17 °C 1012.9 hPa Calm     72% 0.0 mm 0 W/m2
03:03 22.3 °C 17 °C 1012.9 hPa Calm     72% 0.0 mm 0 W/m2
03:08 22.3 °C 17.2 °C 1012.5 hPa Calm     73% 0.0 mm 0 W/m2
03:13 22.2 °C 17.1 °C 1012.9 hPa Calm     73% 0.0 mm 0 W/m2
03:18 22.1 °C 17.2 °C 1012.5 hPa Calm     74% 0.0 mm 0 W/m2
03:23 22.1 °C 17.2 °C 1012.5 hPa Calm     74% 0.0 mm 0 W/m2
03:28 22.1 °C 17.2 °C 1012.9 hPa Calm     74% 0.0 mm 0 W/m2
03:33 22 °C 17.2 °C 1012.5 hPa Calm     74% 0.0 mm 0 W/m2
03:38 21.9 °C 17.1 °C 1012.9 hPa Calm     74% 0.0 mm 0 W/m2
03:43 21.8 °C 17.2 °C 1012.9 hPa Calm     75% 0.0 mm 0 W/m2
03:48 21.8 °C 17.2 °C 1012.9 hPa ESE 1.4 km/h 3.2 km/h 75% 0.0 mm 0 W/m2
03:53 21.7 °C 17.3 °C 1012.9 hPa Calm     76% 0.0 mm 0 W/m2
03:58 21.7 °C 17.3 °C 1012.9 hPa Calm     76% 0.0 mm 0 W/m2
04:03 21.7 °C 17.3 °C 1012.9 hPa ESE 1.4 km/h 1.6 km/h 76% 0.0 mm 0 W/m2
04:08 21.7 °C 17.3 °C 1012.9 hPa Calm   3.2 km/h 76% 0.0 mm 0 W/m2
04:13 21.8 °C 17.4 °C 1012.5 hPa ESE 1.4 km/h 3.2 km/h 76% 0.0 mm 0 W/m2
04:19 21.8 °C 17.2 °C 1012.5 hPa Calm     75% 0.0 mm 0 W/m2
04:24 21.8 °C 17.2 °C 1012.9 hPa Calm     75% 0.0 mm 0 W/m2
04:29 21.8 °C 17.4 °C 1012.5 hPa Calm   1.6 km/h 76% 0.0 mm 0 W/m2
04:34 21.8 °C 17.4 °C 1012.5 hPa ESE 1.4 km/h 1.6 km/h 76% 0.0 mm 0 W/m2
04:39 21.8 °C 17.4 °C 1012.5 hPa Calm   3.2 km/h 76% 0.0 mm 0 W/m2
04:44 21.7 °C 17.5 °C 1012.5 hPa Calm   1.6 km/h 77% 0.0 mm 0 W/m2
04:49 21.7 °C 17.5 °C 1012.5 hPa Calm   3.2 km/h 77% 0.0 mm 0 W/m2
04:54 21.7 °C 17.5 °C 1012.5 hPa ESE 1.4 km/h 3.2 km/h 77% 0.0 mm 0 W/m2
04:59 21.6 °C 17.4 °C 1012.5 hPa ESE 1.4 km/h 3.2 km/h 77% 0.0 mm 0 W/m2
05:04 21.6 °C 17.4 °C 1012.5 hPa ESE 1.4 km/h 1.6 km/h 77% 0.0 mm 0 W/m2
05:09 21.5 °C 17.5 °C 1012.5 hPa Calm   3.2 km/h 78% 0.0 mm 0 W/m2
05:14 21.4 °C 17.4 °C 1012.5 hPa Calm     78% 0.0 mm 0 W/m2
05:19 21.4 °C 17.4 °C 1012.2 hPa Calm   1.6 km/h 78% 0.0 mm 0 W/m2
05:24 21.3 °C 17.5 °C 1012.2 hPa Calm     79% 0.0 mm 0 W/m2
05:29 21.3 °C 17.5 °C 1012.2 hPa Calm   1.6 km/h 79% 0.0 mm 0 W/m2
05:34 21.2 °C 17.4 °C 1012.2 hPa Calm   1.6 km/h 79% 0.0 mm 0 W/m2
05:39 21.2 °C 17.4 °C 1012.5 hPa Calm     79% 0.0 mm 0 W/m2
05:44 21.1 °C 17.3 °C 1012.2 hPa Calm     79% 0.0 mm 0 W/m2
05:49 21 °C 17.4 °C 1012.2 hPa Calm     80% 0.0 mm 0 W/m2
05:54 20.9 °C 17.3 °C 1012.2 hPa Calm     80% 0.0 mm 0 W/m2
05:59 20.9 °C 17.5 °C 1012.2 hPa Calm     81% 0.0 mm 0 W/m2
06:04 20.8 °C 17.4 °C 1012.2 hPa Calm     81% 0.0 mm 0 W/m2
06:09 20.8 °C 17.4 °C 1012.2 hPa Calm     81% 0.0 mm 0 W/m2
06:14 20.7 °C 17.3 °C 1012.5 hPa Calm     81% 0.0 mm 0 W/m2
06:19 20.7 °C 17.3 °C 1012.5 hPa Calm     81% 0.0 mm 0 W/m2
06:24 20.7 °C 17.5 °C 1012.5 hPa Calm     82% 0.0 mm 5 W/m2
06:29 20.7 °C 17.3 °C 1012.5 hPa Calm     81% 0.0 mm 9 W/m2
06:34 20.7 °C 17.3 °C 1012.5 hPa Calm     81% 0.0 mm 11 W/m2
06:39 20.7 °C 17.3 °C 1012.5 hPa Calm     81% 0.0 mm 14 W/m2
06:44 20.7 °C 17.5 °C 1012.5 hPa Calm     82% 0.0 mm 16 W/m2
06:49 20.7 °C 17.5 °C 1012.5 hPa Calm     82% 0.0 mm 19 W/m2
06:54 20.7 °C 17.5 °C 1012.5 hPa Calm     82% 0.0 mm 25 W/m2
06:59 20.7 °C 17.5 °C 1012.5 hPa Calm     82% 0.0 mm 26 W/m2
07:04 20.7 °C 17.5 °C 1012.5 hPa Calm     82% 0.0 mm 30 W/m2
07:09 20.7 °C 17.5 °C 1012.5 hPa Calm     82% 0.0 mm 33 W/m2
07:14 20.8 °C 17.6 °C 1012.5 hPa Calm     82% 0.0 mm 35 W/m2
07:19 20.9 °C 17.7 °C 1012.5 hPa Calm     82% 0.0 mm 37 W/m2
07:24 21.1 °C 17.9 °C 1012.5 hPa Calm     82% 0.0 mm 40 W/m2
07:29 21.2 °C 17.8 °C 1012.5 hPa Calm     81% 0.0 mm 42 W/m2
07:34 21.3 °C 17.7 °C 1012.5 hPa ESE 1.4 km/h 3.2 km/h 80% 0.0 mm 44 W/m2
07:39 21.6 °C 18 °C 1012.5 hPa ESE 1.4 km/h 3.2 km/h 80% 0.0 mm 46 W/m2
07:44 21.7 °C 17.9 °C 1012.5 hPa Calm     79% 0.0 mm 47 W/m2
07:49 21.8 °C 17.8 °C 1012.5 hPa ENE 1.4 km/h 4.8 km/h 78% 0.0 mm 49 W/m2
07:54 22.1 °C 18.1 °C 1012.5 hPa Calm   1.6 km/h 78% 0.0 mm 51 W/m2
07:59 22.2 °C 18.2 °C 1012.9 hPa ENE 1.4 km/h 3.2 km/h 78% 0.0 mm 83 W/m2
08:04 22.4 °C 18.2 °C 1012.9 hPa Calm   1.6 km/h 77% 0.0 mm 67 W/m2
08:09 22.6 °C 18.2 °C 1012.9 hPa NE 3.2 km/h 6.4 km/h 76% 0.0 mm 62 W/m2
08:14 22.8 °C 18.1 °C 1012.9 hPa NE 1.4 km/h 4.8 km/h 75% 0.0 mm 62 W/m2
08:19 23.1 °C 18.2 °C 1012.9 hPa Calm   3.2 km/h 74% 0.0 mm 62 W/m2
08:24 23.2 °C 18.3 °C 1012.9 hPa ENE 3.2 km/h 4.8 km/h 74% 0.0 mm 62 W/m2
08:29 23.5 °C 18.4 °C 1012.9 hPa Calm   3.2 km/h 73% 0.0 mm 62 W/m2
08:34 23.8 °C 18.7 °C 1012.9 hPa NE 1.4 km/h 3.2 km/h 73% 0.0 mm 69 W/m2
08:40 24.1 °C 18.7 °C 1012.9 hPa NNE 1.4 km/h 1.6 km/h 72% 0.0 mm 70 W/m2
08:45 24.2 °C 18.6 °C 1012.5 hPa ENE 1.4 km/h 4.8 km/h 71% 0.0 mm 72 W/m2
08:50 24.4 °C 18.6 °C 1012.9 hPa North 1.4 km/h 3.2 km/h 70% 0.0 mm 84 W/m2
08:55 24.6 °C 18.5 °C 1012.9 hPa ESE 4.7 km/h 6.4 km/h 69% 0.0 mm 214 W/m2
09:00 24.7 °C 18.6 °C 1012.9 hPa ENE 1.4 km/h 6.4 km/h 69% 0.0 mm 271 W/m2
09:05 24.8 °C 18.7 °C 1012.5 hPa ESE 4.7 km/h 4.8 km/h 69% 0.0 mm 288 W/m2
09:10 24.8 °C 18.7 °C 1012.5 hPa Calm   1.6 km/h 69% 0.0 mm 306 W/m2
09:15 24.8 °C 18.7 °C 1012.5 hPa NE 4.7 km/h 4.8 km/h 69% 0.0 mm 320 W/m2
09:20 24.9 °C 18.8 °C 1012.5 hPa North 3.2 km/h 4.8 km/h 69% 0.0 mm 332 W/m2
09:25 24.9 °C 18.6 °C 1012.5 hPa ESE 1.4 km/h 3.2 km/h 68% 0.0 mm 345 W/m2
09:30 25 °C 18.7 °C 1012.5 hPa ENE 4.7 km/h 4.8 km/h 68% 0.0 mm 359 W/m2
09:35 25.2 °C 18.9 °C 1012.5 hPa East 1.4 km/h 3.2 km/h 68% 0.0 mm 378 W/m2
09:40 25.4 °C 18.8 °C 1012.5 hPa ENE 4.7 km/h 6.4 km/h 67% 0.0 mm 320 W/m2
09:45 25.7 °C 18.9 °C 1012.5 hPa ENE 1.4 km/h 9.7 km/h 66% 0.0 mm 114 W/m2
09:50 25.9 °C 19.1 °C 1012.5 hPa NE 1.4 km/h 6.4 km/h 66% 0.0 mm 264 W/m2
09:55 26.1 °C 19 °C 1012.5 hPa SE 3.2 km/h 3.2 km/h 65% 0.0 mm 251 W/m2
10:00 26.3 °C 19.2 °C 1012.5 hPa NE 7.9 km/h 8 km/h 65% 0.0 mm 413 W/m2
10:05 26.4 °C 19 °C 1012.5 hPa East 1.4 km/h 4.8 km/h 64% 0.0 mm 369 W/m2
10:10 26.7 °C 19.1 °C 1012.5 hPa ENE 7.9 km/h 8 km/h 63% 0.0 mm 487 W/m2
10:15 26.8 °C 19.2 °C 1012.5 hPa ESE 1.4 km/h 3.2 km/h 63% 0.0 mm 468 W/m2
10:20 27.1 °C 19.2 °C 1012.5 hPa ENE 4.7 km/h 8 km/h 62% 0.0 mm 492 W/m2
10:25 27.3 °C 19.1 °C 1012.5 hPa SE 7.9 km/h 9.7 km/h 61% 0.0 mm 404 W/m2
10:30 27.3 °C 19.1 °C 1012.5 hPa ENE 1.4 km/h 4.8 km/h 61% 0.0 mm 503 W/m2
10:35 27.7 °C 19.5 °C 1012.5 hPa NNE 1.4 km/h 4.8 km/h 61% 0.0 mm 749 W/m2
10:40 28.1 °C 19.3 °C 1012.5 hPa ESE 9.7 km/h 9.7 km/h 59% 0.0 mm 508 W/m2
10:45 28.2 °C 19.4 °C 1012.5 hPa ESE 3.2 km/h 6.4 km/h 59% 0.0 mm 526 W/m2
10:50 28.2 °C 19.2 °C 1012.5 hPa WNW 3.2 km/h 9.7 km/h 58% 0.0 mm 671 W/m2
10:55 28.3 °C 19.5 °C 1012.5 hPa NW 3.2 km/h 3.2 km/h 59% 0.0 mm 605 W/m2
11:00 28.5 °C 19.4 °C 1012.5 hPa East 4.7 km/h 8 km/h 58% 0.0 mm 631 W/m2
11:06 28.8 °C 19.7 °C 1012.5 hPa NW 3.2 km/h 3.2 km/h 58% 0.0 mm 408 W/m2
11:11 28.9 °C 19.5 °C 1012.5 hPa Calm   3.2 km/h 57% 0.0 mm 510 W/m2
11:16 29.1 °C 19.7 °C 1012.5 hPa SE 4.7 km/h 6.4 km/h 57% 0.0 mm 302 W/m2
11:21 28.9 °C 19.5 °C 1012.5 hPa East 1.4 km/h 8 km/h 57% 0.0 mm 338 W/m2
11:26 28.9 °C 19.5 °C 1012.5 hPa NE 3.2 km/h 9.7 km/h 57% 0.0 mm 619 W/m2
11:31 28.9 °C 19.5 °C 1012.5 hPa East 4.7 km/h 6.4 km/h 57% 0.0 mm 380 W/m2
11:36 29 °C 19.6 °C 1012.5 hPa NNW 1.4 km/h 4.8 km/h 57% 0.0 mm 294 W/m2
11:41 29.1 °C 19.4 °C 1012.5 hPa ESE 1.4 km/h 3.2 km/h 56% 0.0 mm 281 W/m2
11:46 29.2 °C 19.5 °C 1012.5 hPa NNW 4.7 km/h 4.8 km/h 56% 0.0 mm 283 W/m2
11:51 29.3 °C 19.6 °C 1012.5 hPa East 1.4 km/h 4.8 km/h 56% 0.0 mm 334 W/m2
11:56 29.4 °C 19.7 °C 1012.5 hPa NNW 3.2 km/h 6.4 km/h 56% 0.0 mm 295 W/m2
12:01 29.4 °C 19.7 °C 1012.5 hPa NE 3.2 km/h 8 km/h 56% 0.0 mm 285 W/m2
12:06 29.5 °C 19.8 °C 1012.5 hPa ESE 4.7 km/h 4.8 km/h 56% 0.0 mm 287 W/m2
12:11 29.6 °C 19.6 °C 1012.2 hPa ENE 7.9 km/h 8 km/h 55% 0.0 mm 315 W/m2
12:16 29.6 °C 19.3 °C 1012.5 hPa East 4.7 km/h 8 km/h 54% 0.0 mm 323 W/m2
12:22 29.7 °C 19.4 °C 1012.5 hPa East 4.7 km/h 6.4 km/h 54% 0.0 mm 388 W/m2
12:27 29.8 °C 19.5 °C 1012.5 hPa NE 6.4 km/h 6.4 km/h 54% 0.0 mm 341 W/m2
12:32 29.9 °C 19.3 °C 1012.5 hPa NNE 3.2 km/h 3.2 km/h 53% 0.0 mm 341 W/m2
12:37 30.1 °C 19.5 °C 1012.5 hPa NE 4.7 km/h 4.8 km/h 53% 0.0 mm 302 W/m2
12:42 30.2 °C 19.6 °C 1012.5 hPa NE 1.4 km/h 1.6 km/h 53% 0.0 mm 309 W/m2
12:47 30.3 °C 19.3 °C 1012.5 hPa NE 3.2 km/h 6.4 km/h 52% 0.0 mm 306 W/m2
12:52 30.4 °C 19.4 °C 1012.5 hPa ENE 1.4 km/h 3.2 km/h 52% 0.0 mm 304 W/m2
12:57 30.5 °C 19.2 °C 1012.2 hPa East 4.7 km/h 9.7 km/h 51% 0.0 mm 366 W/m2
13:02 30.7 °C 19.1 °C 1012.2 hPa Calm   1.6 km/h 50% 0.0 mm 408 W/m2
13:07 31.1 °C 19.4 °C 1012.2 hPa ENE 3.2 km/h 9.7 km/h 50% 0.0 mm 599 W/m2
13:13 31.3 °C 19.3 °C 1012.2 hPa Calm   3.2 km/h 49% 0.0 mm 886 W/m2
13:18 31.4 °C 19.4 °C 1011.9 hPa WNW 1.4 km/h 1.6 km/h 49% 0.0 mm 178 W/m2
13:23 31.5 °C 18.8 °C 1011.9 hPa ENE 4.7 km/h 8 km/h 47% 0.0 mm 840 W/m2
13:28 31.8 °C 19.1 °C 1011.9 hPa ENE 1.4 km/h 3.2 km/h 47% 0.0 mm 791 W/m2
13:33 32.1 °C 19.7 °C 1011.9 hPa SE 1.4 km/h 3.2 km/h 48% 0.0 mm 775 W/m2
13:38 32.3 °C 19.5 °C 1011.9 hPa Calm   11.3 km/h 47% 0.0 mm 772 W/m2
13:43 32.7 °C 19.6 °C 1011.9 hPa ESE 4.7 km/h 6.4 km/h 46% 0.0 mm 773 W/m2
13:48 32.9 °C 19.4 °C 1011.9 hPa NNW 4.7 km/h 4.8 km/h 45% 0.0 mm 777 W/m2
13:53 32.8 °C 18.9 °C 1011.5 hPa NNE 1.4 km/h 4.8 km/h 44% 0.0 mm 780 W/m2
13:58 32.9 °C 19 °C 1011.5 hPa SSE 1.4 km/h 6.4 km/h 44% 0.0 mm 770 W/m2
14:03 32.9 °C 19 °C 1011.5 hPa East 4.7 km/h 6.4 km/h 44% 0.0 mm 766 W/m2
14:08 32.9 °C 19 °C 1011.5 hPa East 4.7 km/h 8 km/h 44% 0.0 mm 765 W/m2
14:13 33.1 °C 18.8 °C 1011.5 hPa ESE 1.4 km/h 6.4 km/h 43% 0.0 mm 758 W/m2
14:18 33.2 °C 19.3 °C 1011.5 hPa SW 1.4 km/h 3.2 km/h 44% 0.0 mm 761 W/m2
14:23 33.2 °C 18.9 °C 1011.2 hPa Calm   4.8 km/h 43% 0.0 mm 763 W/m2
14:29 33.6 °C 19.3 °C 1011.2 hPa East 3.2 km/h 6.4 km/h 43% 0.0 mm 759 W/m2
14:34 33.8 °C 19.1 °C 1011.2 hPa ENE 3.2 km/h 3.2 km/h 42% 0.0 mm 758 W/m2
14:39 33.8 °C 19.5 °C 1011.2 hPa NNE 1.4 km/h 3.2 km/h 43% 0.0 mm 756 W/m2
14:44 33.9 °C 19.2 °C 1011.2 hPa NNW 3.2 km/h 4.8 km/h 42% 0.0 mm 745 W/m2
14:49 33.9 °C 19.2 °C 1011.2 hPa Calm   1.6 km/h 42% 0.0 mm 747 W/m2
14:54 34.2 °C 19.5 °C 1011.2 hPa WNW 3.2 km/h 3.2 km/h 42% 0.0 mm 735 W/m2
14:59 34.4 °C 19.2 °C 1010.8 hPa ENE 1.4 km/h 8 km/h 41% 0.0 mm 726 W/m2
15:04 34.4 °C 19.2 °C 1010.8 hPa SW 1.4 km/h 8 km/h 41% 0.0 mm 721 W/m2
15:09 34.5 °C 18.9 °C 1010.8 hPa NE 1.4 km/h 6.4 km/h 40% 0.0 mm 728 W/m2
15:14 34.7 °C 19.5 °C 1010.8 hPa ENE 3.2 km/h 4.8 km/h 41% 0.0 mm 729 W/m2
15:19 34.8 °C 19.2 °C 1010.8 hPa NW 4.7 km/h 4.8 km/h 40% 0.0 mm 729 W/m2
15:24 34.8 °C 19.2 °C 1010.8 hPa East 6.4 km/h 6.4 km/h 40% 0.0 mm 712 W/m2
15:29 34.9 °C 18.9 °C 1010.8 hPa ENE 4.7 km/h 11.3 km/h 39% 0.0 mm 737 W/m2
15:34 35.1 °C 18.6 °C 1010.8 hPa ENE 1.4 km/h 3.2 km/h 38% 0.0 mm 689 W/m2
15:39 35.2 °C 19.2 °C 1010.5 hPa East 3.2 km/h 11.3 km/h 39% 0.0 mm 162 W/m2
15:44 35.3 °C 18.8 °C 1010.5 hPa ESE 4.7 km/h 8 km/h 38% 0.0 mm 701 W/m2
15:49 35.3 °C 18.8 °C 1010.5 hPa West 1.4 km/h 6.4 km/h 38% 0.0 mm 700 W/m2
15:54 35.3 °C 19.2 °C 1010.2 hPa ESE 3.2 km/h 4.8 km/h 39% 0.0 mm 691 W/m2
15:59 35.3 °C 18.8 °C 1010.2 hPa West 3.2 km/h 6.4 km/h 38% 0.0 mm 689 W/m2
16:04 35.3 °C 18.8 °C 1010.2 hPa East 1.4 km/h 6.4 km/h 38% 0.0 mm 686 W/m2
16:09 35.6 °C 18.7 °C 1010.2 hPa North 3.2 km/h 4.8 km/h 37% 0.0 mm 686 W/m2
16:14 35.7 °C 18.7 °C 1010.2 hPa East 3.2 km/h 4.8 km/h 37% 0.0 mm 663 W/m2
16:19 35.9 °C 18 °C 1010.2 hPa ENE 4.7 km/h 11.3 km/h 35% 0.0 mm 671 W/m2
16:24 35.9 °C 18 °C 1010.2 hPa NW 1.4 km/h 12.9 km/h 35% 0.0 mm 689 W/m2
16:29 35.7 °C 17.9 °C 1010.2 hPa East 16.3 km/h 16.1 km/h 35% 0.0 mm 292 W/m2
16:34 34.9 °C 18 °C 1010.5 hPa WNW 7.9 km/h 14.5 km/h 37% 0.0 mm 199 W/m2
16:39 33.4 °C 17.1 °C 1010.8 hPa East 11.1 km/h 11.3 km/h 38% 0.0 mm 221 W/m2
16:44 32.3 °C 17 °C 1010.8 hPa NNW 4.7 km/h 8 km/h 40% 0.0 mm 279 W/m2
16:49 31.6 °C 16.7 °C 1010.8 hPa East 4.7 km/h 16.1 km/h 41% 0.0 mm 141 W/m2
16:54 30.9 °C 17.2 °C 1010.8 hPa East 22.7 km/h 22.5 km/h 44% 0.0 mm 139 W/m2
16:59 30.2 °C 17.3 °C 1010.8 hPa South 16.3 km/h 24.1 km/h 46% 0.0 mm 123 W/m2
17:04 29.6 °C 16.8 °C 1010.8 hPa South 9.7 km/h 17.7 km/h 46% 0.0 mm 93 W/m2
17:09 29.3 °C 16.8 °C 1010.8 hPa East 7.9 km/h 14.5 km/h 47% 0.0 mm 156 W/m2
17:15 29.5 °C 17 °C 1010.5 hPa NNE 4.7 km/h 4.8 km/h 47% 0.0 mm 541 W/m2
17:20 30.2 °C 16.9 °C 1010.5 hPa NE 9.7 km/h 14.5 km/h 45% 0.0 mm 527 W/m2
17:25 30.9 °C 16.9 °C 1010.2 hPa ENE 1.4 km/h 6.4 km/h 43% 0.0 mm 499 W/m2
17:30 31.6 °C 16 °C 1010.2 hPa NNW 4.7 km/h 17.7 km/h 39% 0.0 mm 501 W/m2
17:35 32.1 °C 16 °C 1010.2 hPa North 3.2 km/h 14.5 km/h 38% 0.0 mm 425 W/m2
17:40 32.3 °C 16.2 °C 1010.2 hPa NW 3.2 km/h 17.7 km/h 38% 0.0 mm 223 W/m2
17:45 32.6 °C 16 °C 1010.2 hPa West 4.7 km/h 4.8 km/h 37% 0.0 mm 485 W/m2
17:50 32.9 °C 16.3 °C 1010.2 hPa NE 1.4 km/h 12.9 km/h 37% 0.0 mm 475 W/m2
17:55 33.3 °C 16.6 °C 1009.8 hPa East 3.2 km/h 3.2 km/h 37% 0.0 mm 427 W/m2
18:00 33.5 °C 16.8 °C 1009.8 hPa ENE 1.4 km/h 4.8 km/h 37% 0.0 mm 441 W/m2
18:06 33.4 °C 16.3 °C 1009.8 hPa SSW 3.2 km/h 3.2 km/h 36% 0.0 mm 121 W/m2
18:11 33.1 °C 16 °C 1009.8 hPa ENE 3.2 km/h 3.2 km/h 36% 0.0 mm 134 W/m2
18:16 32.8 °C 15.8 °C 1009.8 hPa NNE 3.2 km/h 4.8 km/h 36% 0.0 mm 276 W/m2
18:21 32.9 °C 16.3 °C 1009.8 hPa NE 1.4 km/h 1.6 km/h 37% 0.0 mm 327 W/m2
18:26 33 °C 16.4 °C 1009.8 hPa ESE 3.2 km/h 4.8 km/h 37% 0.0 mm 244 W/m2
18:31 32.8 °C 15.8 °C 1009.8 hPa ENE 3.2 km/h 6.4 km/h 36% 0.0 mm 123 W/m2
18:36 32.4 °C 16.3 °C 1009.8 hPa SE 4.7 km/h 6.4 km/h 38% 0.0 mm 123 W/m2
18:41 31.9 °C 15.8 °C 1009.8 hPa East 3.2 km/h 9.7 km/h 38% 0.0 mm 128 W/m2
18:46 31.6 °C 16 °C 1009.8 hPa ENE 1.4 km/h 6.4 km/h 39% 0.0 mm 225 W/m2
18:51 31.6 °C 16.4 °C 1009.8 hPa Calm   1.6 km/h 40% 0.0 mm 250 W/m2
18:56 31.7 °C 16.4 °C 1009.8 hPa East 1.4 km/h 4.8 km/h 40% 0.0 mm 132 W/m2
19:01 31.7 °C 16.8 °C 1009.8 hPa Calm   1.6 km/h 41% 0.0 mm 116 W/m2
19:06 31.6 °C 16.7 °C 1009.8 hPa East 1.4 km/h 4.8 km/h 41% 0.0 mm 104 W/m2
19:11 31.4 °C 16.6 °C 1009.8 hPa Calm   1.6 km/h 41% 0.0 mm 105 W/m2
19:16 31.2 °C 16.8 °C 1009.8 hPa Calm     42% 0.0 mm 97 W/m2
19:21 31.1 °C 16.7 °C 1009.8 hPa Calm   4.8 km/h 42% 0.0 mm 72 W/m2
19:26 30.9 °C 17.2 °C 1009.8 hPa NE 1.4 km/h 1.6 km/h 44% 0.0 mm 62 W/m2
19:31 30.8 °C 17.5 °C 1009.8 hPa NE 1.4 km/h 4.8 km/h 45% 0.0 mm 100 W/m2
19:36 30.6 °C 17 °C 1009.8 hPa Calm     44% 0.0 mm 88 W/m2
19:41 30.4 °C 16.8 °C 1009.8 hPa Calm     44% 0.0 mm 95 W/m2
19:46 30.3 °C 17 °C 1010.2 hPa Calm   1.6 km/h 45% 0.0 mm 77 W/m2
19:51 30.2 °C 17.3 °C 1010.2 hPa Calm     46% 0.0 mm 70 W/m2
19:57 30.1 °C 17.2 °C 1010.2 hPa Calm   1.6 km/h 46% 0.0 mm 60 W/m2
20:02 29.9 °C 17.7 °C 1010.2 hPa Calm     48% 0.0 mm 42 W/m2
20:07 29.7 °C 17.5 °C 1010.2 hPa Calm   1.6 km/h 48% 0.0 mm 28 W/m2
20:12 29.4 °C 17.6 °C 1010.5 hPa Calm     49% 0.0 mm 21 W/m2
20:17 29.1 °C 16.6 °C 1010.5 hPa East 3.2 km/h 9.7 km/h 47% 0.0 mm 18 W/m2
20:22 29 °C 16.9 °C 1010.5 hPa NNE 3.2 km/h 4.8 km/h 48% 0.0 mm 14 W/m2
20:27 28.9 °C 16.8 °C 1010.5 hPa Calm   4.8 km/h 48% 0.0 mm 12 W/m2
20:32 28.7 °C 16.9 °C 1010.5 hPa East 3.2 km/h 4.8 km/h 49% 0.0 mm 9 W/m2
20:37 28.5 °C 17.4 °C 1010.5 hPa ENE 1.4 km/h 14.5 km/h 51% 0.0 mm 7 W/m2
20:42 28.4 °C 17.9 °C 1010.5 hPa East 1.4 km/h 6.4 km/h 53% 0.0 mm 5 W/m2
20:47 28.2 °C 18 °C 1010.5 hPa NE 1.4 km/h 8 km/h 54% 0.0 mm 0 W/m2
20:52 28.1 °C 18.2 °C 1010.5 hPa SE 1.4 km/h 4.8 km/h 55% 0.0 mm 0 W/m2
20:57 27.9 °C 18 °C 1010.5 hPa ESE 1.4 km/h 1.6 km/h 55% 0.0 mm 0 W/m2
21:02 27.8 °C 18.2 °C 1010.5 hPa ENE 1.4 km/h 4.8 km/h 56% 0.0 mm 0 W/m2
21:07 27.7 °C 19.8 °C 1010.8 hPa SSE 3.2 km/h 3.2 km/h 62% 0.5 mm 0 W/m2
21:12 27.2 °C 21.2 °C 1011.2 hPa South 1.4 km/h 3.2 km/h 70% 1.0 mm 0 W/m2
21:17 25.9 °C 19.1 °C 1011.5 hPa NW 6.4 km/h 8 km/h 66% 1.0 mm 0 W/m2
21:22 25.6 °C 21.1 °C 1011.9 hPa SW 1.4 km/h 3.2 km/h 76% 1.0 mm 0 W/m2
21:27 24.9 °C 20.8 °C 1011.9 hPa Calm   8 km/h 78% 1.0 mm 0 W/m2
21:32 24.4 °C 20.7 °C 1011.9 hPa Calm   1.6 km/h 80% 1.0 mm 0 W/m2
21:37 23.9 °C 20.4 °C 1011.9 hPa Calm   3.2 km/h 81% 1.0 mm 0 W/m2
21:42 23.5 °C 20.2 °C 1012.2 hPa South 3.2 km/h 6.4 km/h 82% 1.0 mm 0 W/m2
21:47 23.2 °C 20.3 °C 1012.2 hPa SSE 4.7 km/h 6.4 km/h 84% 1.0 mm 0 W/m2
21:52 22.9 °C 20.4 °C 1012.2 hPa WSW 1.4 km/h 3.2 km/h 86% 1.3 mm 0 W/m2
21:57 22.9 °C 20.6 °C 1011.9 hPa WSW 1.4 km/h 1.6 km/h 87% 2.0 mm 0 W/m2
22:02 22.8 °C 20.7 °C 1011.5 hPa WSW 6.4 km/h 6.4 km/h 88% 2.3 mm 0 W/m2
22:07 22.8 °C 20.5 °C 1011.9 hPa South 3.2 km/h 6.4 km/h 87% 1.5 mm 0 W/m2
22:12 22.7 °C 20.6 °C 1011.9 hPa West 3.2 km/h 4.8 km/h 88% 1.3 mm 0 W/m2
22:17 22.5 °C 20.4 °C 1011.9 hPa West 4.7 km/h 6.4 km/h 88% 1.3 mm 0 W/m2
22:22 22.3 °C 20.4 °C 1012.2 hPa SW 3.2 km/h 3.2 km/h 89% 1.3 mm 0 W/m2
22:27 22.3 °C 20.6 °C 1012.2 hPa WSW 1.4 km/h 4.8 km/h 90% 1.3 mm 0 W/m2
22:33 22.1 °C 20.2 °C 1012.2 hPa SSW 3.2 km/h 3.2 km/h 89% 1.3 mm 0 W/m2
22:38 22.1 °C 20.4 °C 1012.2 hPa SSW 1.4 km/h 3.2 km/h 90% 1.3 mm 0 W/m2
22:43 22.1 °C 20.4 °C 1012.2 hPa SW 1.4 km/h 3.2 km/h 90% 1.3 mm 0 W/m2
22:48 21.9 °C 20.2 °C 1012.2 hPa SW 1.4 km/h 4.8 km/h 90% 1.3 mm 0 W/m2
22:53 21.9 °C 20.4 °C 1012.2 hPa SW 1.4 km/h 1.6 km/h 91% 1.0 mm 0 W/m2
22:58 21.8 °C 20.3 °C 1012.2 hPa Calm   4.8 km/h 91% 0.2 mm 0 W/m2
23:03 21.7 °C 20.2 °C 1012.2 hPa North 1.4 km/h 4.8 km/h 91% 0.0 mm 0 W/m2
23:08 21.8 °C 20.3 °C 1012.2 hPa Calm   3.2 km/h 91% 0.0 mm 0 W/m2
23:13 21.8 °C 20.3 °C 1012.2 hPa South 1.4 km/h 3.2 km/h 91% 0.0 mm 0 W/m2
23:18 21.7 °C 20.2 °C 1011.9 hPa Calm   3.2 km/h 91% 0.0 mm 0 W/m2
23:23 21.6 °C 20.1 °C 1011.9 hPa Calm   6.4 km/h 91% 0.0 mm 0 W/m2
23:28 21.4 °C 19.9 °C 1011.9 hPa South 1.4 km/h 4.8 km/h 91% 0.0 mm 0 W/m2
23:33 21.4 °C 19.9 °C 1011.9 hPa West 1.4 km/h 3.2 km/h 91% 0.0 mm 0 W/m2
23:38 21.4 °C 19.9 °C 1011.9 hPa NW 1.4 km/h 6.4 km/h 91% 0.0 mm 0 W/m2
23:43 21.5 °C 19.8 °C 1011.9 hPa NW 3.2 km/h 9.7 km/h 90% 0.0 mm 0 W/m2
23:48 21.6 °C 19.9 °C 1011.9 hPa SSW 3.2 km/h 4.8 km/h 90% 0.0 mm 0 W/m2
23:53 21.5 °C 19.8 °C 1011.5 hPa SSW 1.4 km/h 8 km/h 90% 0.0 mm 0 W/m2
23:58 21.4 °C 19.7 °C 1011.5 hPa SSW 1.4 km/h 3.2 km/h 90% 0.0 mm 0 W/m2
Juneau County Weather
Compliments of Weather Underground - 4 mb